Location: Cheyres
(46.8153°N, 6.7877°E)
Time: 15:18:31
(UTC+00:00)

SEEDS - Visible Passes

Search period start: 02 July 2022 00:00
Search period end: 12 July 2022 00:00
Orbit: 580 x 599 km, 97.6° (Epoch: 01 July)

Date Brightness Start Highest point End Pass type
(mag) Time Alt. Az. Time Alt. Az. Time Alt. Az.
07 Jul ? 02:35:02 10° ENE 02:36:45 12° E 02:38:27 10° ESE visible
08 Jul ? 02:42:17 10° NE 02:44:39 15° E 02:47:02 10° SE visible
09 Jul ? 02:49:43 10° NE 02:52:33 18° E 02:55:23 10° SE visible
10 Jul ? 02:57:15 10° NE 03:00:27 21° E 03:03:37 10° SE visible
11 Jul ? 03:04:52 10° NE 03:08:19 25° E 03:11:46 10° SSE visible
